Home > Weather > Rastatt > Past weeks

Flag for Germany Past Weather in Rastatt, Baden-Württemberg, Germany — Yesterday and Last 2 Weeks

Now
75 °F

Sunny.


Feels Like: 78 °F
Forecast: 58 / 79 °F
Wind: 9 mph from North

Location: Karlsruhe - Baden Wurttemberg

Current Time: May 26, 2016 at 4:42:26 PM

Latest Report: May 26, 2016 at 3:50 PM


Visibility: 10 mi

Pressure: 29.95 "Hg

Humidity: 54%

Dew Point: 57 °F

Location of RastattLocation

Past Weather in Rastatt — Graph

°F

Rastatt Temperature Yesterday

Maximum temperature yesterday: 66 °F (at 3:50 PM)
Minimum temperature yesterday: 45 °F (at 4:50 AM)
Average temperature yesterday: 58 °F

High & Low Weather Summary for the Past Weeks

 TemperatureHumidityPressure
High81 °F (May 22, 3:50 PM)100% (May 11, 8:50 PM)30.18 "Hg (May 11, 8:50 PM)
Low43 °F (May 15, 4:20 AM)32% (May 22, 1:50 PM)29.47 "Hg (May 12, 4:50 AM)
Average57 °F78%29.91 "Hg
* Reported May 11 3:20 PM — May 26 3:20 PM, Rastatt, Weather by CustomWeather, © 2016

Note: Actual official high and low records may vary slightly from our data, if they occured in-between our weather recording intervals... More about our weather records

Advertising

Rastatt Weather History for the Previous 24 Hours

Scroll right to see more
 ConditionsComfort  
Time TempWeatherWind HumidityBarometerVisibility
3:20 PM
Thu, May 26
75 °FPassing clouds.7 mph54%29.95 "HgN/A
2:50 PM73 °FPassing clouds.6 mph50%29.98 "HgN/A
2:20 PM73 °FPassing clouds.5 mph50%29.98 "HgN/A
1:50 PM72 °FPassing clouds.5 mph57%29.98 "HgN/A
1:20 PM72 °FPassing clouds.5 mph57%29.98 "HgN/A
12:50 PM70 °FSunny.6 mph64%29.98 "Hg10 mi
12:20 PM68 °FPassing clouds.6 mph64%29.98 "HgN/A
11:50 AM66 °FPassing clouds.5 mph73%29.98 "HgN/A
11:20 AM66 °FSunny.3 mph73%30.01 "Hg10 mi
10:50 AM64 °FSunny.3 mph73%30.01 "Hg10 mi
10:20 AM63 °FSunny.3 mph77%30.01 "Hg10 mi
9:50 AM61 °FSunny.2 mph83%30.01 "Hg10 mi
9:20 AM59 °FSunny.2 mph88%30.01 "Hg10 mi
8:50 AM57 °FSunny.2 mph88%30.01 "Hg10 mi
8:20 AM55 °FPassing clouds.1 mph94%30.01 "Hg4 mi
7:50 AM54 °FFog.1 mph94%30.01 "Hg3 mi
7:20 AM52 °FFog.2 mph100%30.01 "Hg3 mi
6:50 AM50 °FFog.1 mph100%29.98 "Hg3 mi
6:20 AM48 °FFog.2 mph100%30.01 "Hg3 mi
5:50 AM48 °FFog.1 mph100%30.01 "Hg5 mi
5:20 AM48 °FFog.2 mph100%29.98 "Hg5 mi
4:50 AM50 °FClear.3 mph94%29.98 "Hg5 mi
4:20 AM50 °FClear.2 mph100%29.98 "Hg10 mi
3:50 AM50 °FClear.5 mph100%29.98 "Hg10 mi
3:20 AM52 °FClear.6 mph94%29.98 "Hg10 mi
1:50 AM54 °FClear.7 mph94%29.98 "Hg10 mi
11:20 PM
Wed, May 25
55 °FClear.8 mph88%29.98 "Hg10 mi
10:50 PM57 °FClear.8 mph82%29.98 "Hg10 mi
10:20 PM57 °FClear.7 mph82%29.98 "Hg10 mi
9:50 PM57 °FSunny.8 mph82%29.98 "Hg10 mi
9:20 PM59 °FSunny.8 mph77%29.95 "Hg10 mi
8:50 PM61 °FSunny.8 mph72%29.95 "Hg10 mi
8:20 PM63 °FSunny.8 mph73%29.95 "Hg10 mi
7:50 PM64 °FSunny.9 mph64%29.95 "Hg10 mi
7:20 PM64 °FSunny.9 mph68%29.95 "Hg10 mi
6:50 PM64 °FSunny.8 mph64%29.95 "Hg10 mi
6:20 PM66 °FSunny.9 mph64%29.95 "Hg10 mi
5:50 PM64 °FSunny.9 mph64%29.95 "Hg10 mi
5:20 PM64 °FSunny.8 mph68%29.95 "Hg10 mi
4:50 PM66 °FPassing clouds.7 mph60%29.95 "HgN/A
4:20 PM66 °FPassing clouds.6 mph60%29.95 "HgN/A
Weather by CustomWeather, © 2016

See weather overviewHow to use our weather pages